GFSNW_sfc_rhum_096.txt.gz
RH
70 72 75 75 69 70 77 93 99 69 81 97 99 98 73 58 52 48 50 66 67 72 99 93 78 82 83 78 81 66 61 74 73 54 44 44 41 34 46 72 62 62 66 50
71 72 74 70 69 74 95 95 98 73 90 98 98 86 72 60 57 55 52 61 64 74 95 98 88 94 68 74 83 71 54 63 72 55 58 62 72 57 40 49 41 44 63 47
75 74 73 70 73 68 96 100 99 89 98 99 98 81 70 72 55 54 48 47 45 57 76 74 76 86 67 59 74 71 52 54 61 67 62 61 70 74 41 53 84 70 58 38
75 76 75 74 73 76 96 100 94 88 98 98 88 83 93 78 69 55 62 60 52 54 74 71 75 84 85 77 75 58 57 61 65 60 48 43 40 55 45 42 49 72 65 59
82 81 80 79 80 78 98 98 99 85 78 67 78 79 84 72 63 59 81 68 62 60 74 69 81 82 69 64 68 63 64 77 72 68 52 51 54 46 42 37 34 36 40 48
83 80 82 87 82 80 98 98 91 89 78 78 82 90 72 80 75 72 60 58 60 72 67 81 75 82 67 68 75 73 72 82 86 85 68 62 68 53 42 39 80 68 64 88
80 82 85 86 86 81 97 96 84 95 89 78 68 52 50 56 54 76 71 65 78 62 72 70 71 75 76 72 71 70 72 77 88 93 75 86 51 49 64 82 82 79 79 81
84 86 86 86 87 87 93 96 94 95 97 65 61 62 62 60 69 75 69 62 72 78 89 90 79 78 75 68 62 68 64 80 92 94 96 67 55 73 79 76 88 76 83 83
87 88 87 87 86 87 96 91 95 95 98 78 52 64 67 82 86 85 78 81 90 88 98 97 88 86 80 82 70 53 66 74 82 95 88 88 86 68 60 64 98 73 80 81
89 90 92 87 87 86 95 99 85 95 99 70 67 78 76 66 78 91 86 82 91 91 98 96 97 87 59 71 89 89 89 91 91 91 95 80 85 80 73 83 98 77 76 78
90 93 92 88 87 85 96 99 88 98 100 76 73 58 76 83 87 95 90 92 92 98 99 97 91 93 76 78 76 98 89 94 97 92 94 90 79 78 85 89 84 74 77 79
90 91 89 90 87 85 85 98 90 91 100 98 93 88 78 79 83 93 92 99 89 88 91 94 93 96 96 85 93 96 96 77 90 77 82 89 89 79 70 70 72 75 80 79
91 92 92 90 87 85 85 94 96 98 99 96 92 87 66 67 80 82 93 96 90 94 87 97 96 94 94 96 95 92 90 80 91 89 93 88 77 69 66 67 72 72 74 74
93 92 92 91 87 84 82 94 95 90 94 99 86 62 78 61 58 81 81 80 83 90 96 95 96 97 91 95 93 99 90 87 98 98 96 78 78 70 70 69 69 72 72 73
91 90 92 93 88 82 87 94 94 76 90 98 97 81 59 61 64 72 85 90 92 96 96 97 92 94 95 96 95 97 89 98 98 99 100 98 80 68 65 71 73 72 74 77
92 90 89 90 92 83 96 100 96 86 90 99 98 83 79 75 75 77 86 86 96 97 92 98 95 84 94 100 97 96 83 86 98 99 99 95 76 62 66 71 69 69 73 74
92 92 90 91 92 95 98 95 87 82 91 100 99 96 80 79 80 88 89 91 97 96 96 95 90 97 94 100 97 94 97 96 98 80 69 71 66 76 72 71 66 68 70 72
94 93 90 92 93 88 93 93 88 80 96 98 100 89 95 88 96 95 92 97 96 97 95 96 94 97 99 97 91 92 92 93 93 89 70 66 64 65 71 70 71 74 77 76
94 92 91 97 98 99 98 88 81 88 94 99 98 96 98 94 99 97 98 98 100 99 99 98 95 95 98 96 91 88 91 93 80 68 66 66 75 76 70 71 76 80 81 77
94 92 98 100 98 89 92 96 100 99 97 96 98 94 100 98 99 99 100 100 99 99 99 98 97 97 96 92 86 78 84 81 80 77 79 79 79 87 83 83 83 80 78 78
96 99 100 97 83 96 99 99 99 99 95 97 95 96 100 99 100 100 99 98 98 98 97 99 97 94 94 84 82 83 81 80 84 82 82 80 83 83 81 80 77 77 78 83
93 96 95 96 98 100 98 97 96 97 95 99 98 99 97 99 99 100 99 93 97 94 97 98 97 94 91 75 75 78 84 82 81 80 86 87 81 81 79 77 79 83 84 91
75 90 97 90 98 97 93 97 98 99 99 99 100 100 99 98 96 100 100 95 96 97 96 95 98 90 88 83 78 81 77 75 76 80 82 87 92 93 91 95 96 95 96 96
83 85 93 94 95 99 99 99 100 100 98 99 100 99 90 99 94 99 97 99 96 97 96 98 97 96 92 87 83 86 95 96 96 98 96 97 96 97 96 96 96 94 96 96
92 87 100 98 98 98 98 98 97 97 98 99 99 99 96 98 97 99 98 96 97 96 98 99 97 96 95 96 90 94 94 98 99 99 98 99 97 96 96 96 95 94 95 95
87 90 95 97 94 97 97 98 98 98 98 99 99 99 96 100 97 91 98 93 99 98 99 98 96 99 98 98 96 97 98 98 98 98 96 96 96 96 96 94 94 95 95 96
86 98 98 98 98 98 98 99 99 99 99 99 96 94 98 92 95 96 97 99 99 97 98 99 98 98 98 98 97 97 96 97 96 95 94 95 95 95 89 94 96 94 95 96

GFSNW_sfc_rhum_102.txt.gz
RH
69 70 71 73 73 73 80 91 99 68 83 98 97 99 73 60 63 55 61 71 76 86 88 85 83 82 75 67 67 89 88 89 79 52 46 60 40 50 46 62 61 72 65 49
72 74 74 75 74 73 95 97 82 82 92 99 93 61 88 72 70 68 66 69 64 77 91 82 83 86 74 71 85 86 85 91 87 66 66 60 70 69 60 62 64 64 78 63
72 74 75 76 75 74 95 98 97 86 96 91 96 94 79 85 68 69 67 65 61 64 81 79 80 85 79 83 82 84 77 89 91 84 83 70 75 67 71 66 72 64 66 65
74 77 79 80 78 76 95 99 96 88 99 95 87 92 86 85 80 61 66 70 78 90 90 76 90 87 82 82 78 90 88 98 93 86 92 76 63 74 66 65 59 66 60 64
76 77 80 80 79 79 96 99 98 91 97 81 84 77 80 85 71 77 79 82 78 87 96 81 94 75 90 96 89 89 88 97 99 91 76 66 64 69 70 64 63 59 54 63
76 76 81 84 80 84 96 93 91 93 79 88 88 90 74 77 67 62 72 71 82 87 78 74 70 71 68 76 83 89 92 87 93 80 76 71 72 61 65 90 93 88 78 88
76 78 80 85 81 85 95 96 83 95 93 88 79 65 67 67 63 74 64 71 85 71 78 78 74 83 84 86 80 80 95 80 91 86 78 81 84 78 73 84 82 81 78 74
77 78 82 84 84 85 95 96 93 95 99 77 70 73 71 71 69 72 72 66 66 91 92 98 93 81 84 81 83 86 86 81 91 91 96 67 79 81 86 86 97 83 89 84
77 81 83 85 86 84 97 96 92 99 98 85 62 67 68 80 85 80 76 73 84 95 99 98 91 84 76 73 75 74 82 77 80 92 89 91 74 88 80 85 95 85 83 88
78 79 82 87 86 85 94 98 86 98 100 86 75 81 77 73 80 89 84 87 87 91 99 97 99 88 68 72 77 94 95 94 92 90 94 78 79 85 82 91 90 88 89 92
77 79 82 86 86 87 95 98 82 98 100 81 75 66 75 77 88 89 79 86 93 99 98 96 96 97 81 90 86 94 92 93 97 89 94 89 88 87 83 91 92 94 93 93
77 79 83 86 86 89 94 99 89 89 100 98 93 89 76 74 68 82 90 91 98 96 99 98 97 96 96 93 96 90 98 99 99 80 80 88 85 87 86 84 90 88 89 87
77 80 84 86 86 86 92 98 97 99 99 99 95 82 74 73 81 79 96 95 83 96 93 99 98 99 95 98 94 97 97 97 100 97 98 96 90 85 79 78 84 80 79 79
80 83 87 90 88 87 92 98 95 96 99 99 85 69 82 70 75 84 79 79 88 92 95 98 100 99 91 96 95 95 98 100 100 99 100 97 94 96 93 79 78 78 76 77
82 84 89 89 88 88 94 97 92 84 96 99 92 85 70 68 81 87 88 88 92 97 97 100 99 98 97 95 91 94 99 99 99 99 100 100 99 98 72 79 80 78 79 79
86 88 89 90 87 92 97 100 98 87 87 100 98 84 83 84 84 88 97 94 96 94 98 100 99 90 93 98 98 97 97 96 99 99 100 100 100 98 91 77 77 75 77 78
92 94 92 86 85 96 98 94 89 83 93 100 92 96 82 88 90 95 97 93 89 96 97 98 98 93 93 98 98 96 95 94 94 96 98 96 95 95 90 74 74 75 75 76
91 92 92 88 88 92 96 95 89 82 98 98 91 87 94 90 98 96 93 92 91 96 95 95 95 96 95 96 91 89 91 89 88 90 85 95 80 72 73 70 72 79 80 78
90 90 93 96 99 100 98 92 84 90 96 95 98 94 93 95 93 95 99 97 99 97 99 97 95 96 98 97 91 89 89 90 88 89 73 79 80 77 75 74 75 79 78 78
91 98 100 100 99 89 92 98 100 99 99 99 99 90 95 94 100 100 99 98 94 99 94 94 95 95 93 91 94 91 85 83 77 76 79 78 79 81 80 79 78 79 79 80
100 100 100 97 84 95 100 99 99 99 98 98 92 94 92 98 99 99 99 99 98 92 99 96 97 96 92 91 89 84 79 78 80 79 79 77 74 78 78 78 76 77 78 84
94 95 93 95 98 100 99 98 99 90 93 99 98 96 98 100 99 100 100 99 98 96 98 97 99 95 92 88 84 81 81 80 80 80 85 84 78 80 79 78 80 83 84 92
87 93 98 98 97 98 96 97 90 96 96 99 100 100 99 98 97 100 100 93 96 98 97 98 98 93 88 84 77 77 72 73 76 82 82 85 90 92 90 95 95 95 96 96
90 91 98 94 98 98 98 94 97 98 99 99 99 99 96 99 97 99 98 98 98 97 99 96 98 96 93 89 81 82 93 94 91 96 96 96 96 98 97 98 98 96 98 98
91 83 99 99 97 98 98 98 96 97 98 99 100 98 95 96 95 96 95 91 98 95 97 98 97 96 94 97 91 94 94 97 99 99 98 98 98 97 98 98 98 96 96 96
87 89 95 98 96 98 98 98 98 97 98 99 96 96 94 97 96 90 98 95 97 97 99 98 96 99 98 98 96 98 98 98 99 98 97 97 97 98 99 97 97 98 96 98
88 98 98 98 98 98 98 98 96 95 97 100 95 93 98 86 94 97 96 98 97 99 99 99 97 96 98 97 96 97 96 97 97 97 97 100 98 96 91 96 98 95 97 98

GFSNW_sfc_rhum_105.txt.gz
RH
67 71 72 73 73 74 79 90 91 67 85 94 92 88 68 68 54 54 58 59 69 68 78 74 70 80 75 66 76 88 82 79 65 45 37 46 33 35 32 39 48 47 40 34
70 73 75 75 74 73 95 96 82 74 88 95 88 69 72 74 72 66 70 65 60 56 71 76 74 72 68 76 74 86 76 84 73 59 63 47 57 53 41 48 47 41 49 40
68 72 75 76 75 79 95 96 97 75 93 87 88 87 74 78 66 66 66 69 65 75 66 70 75 75 70 74 74 84 72 80 82 59 69 71 63 55 55 52 54 46 43 40
68 73 77 81 79 78 93 95 93 80 94 90 79 80 82 84 81 63 63 66 66 79 85 73 74 75 66 61 77 91 87 92 82 74 75 75 64 56 55 52 48 50 48 51
68 73 77 80 77 78 94 99 95 84 88 80 82 72 68 85 66 64 77 64 64 69 84 87 86 71 69 74 71 79 94 92 92 82 71 66 56 51 60 59 54 56 53 51
68 73 76 83 82 78 96 90 84 84 76 76 80 78 72 68 62 54 57 66 69 71 70 78 75 70 66 62 71 83 97 88 81 66 70 60 52 52 54 63 76 75 63 72
67 74 81 83 86 80 94 91 83 95 85 76 68 61 62 64 60 66 56 60 72 60 74 78 72 82 75 75 74 68 92 87 78 73 69 70 78 72 59 67 75 77 69 76
67 75 79 82 83 87 98 96 93 91 94 68 66 70 69 66 65 67 63 59 60 79 92 84 86 78 78 75 77 75 78 81 82 78 74 57 66 80 80 81 85 81 90 82
67 76 79 83 83 83 96 95 95 100 95 80 58 64 63 71 74 75 69 68 76 88 94 94 90 76 72 67 80 73 85 82 76 82 71 73 77 84 72 73 83 78 82 86
67 74 81 81 83 83 95 98 90 99 100 79 72 74 70 65 75 81 77 78 82 82 90 90 90 80 64 67 70 87 84 94 91 73 72 60 83 78 75 82 88 92 84 91
65 71 79 79 82 86 95 98 86 97 100 85 72 64 69 69 84 81 76 82 89 90 89 90 89 90 72 80 82 92 83 87 86 79 79 72 84 77 74 95 90 84 87 87
65 72 79 78 81 85 88 100 92 93 99 95 88 84 71 69 66 78 78 83 92 91 90 93 97 91 90 87 72 84 95 95 97 80 84 90 86 90 80 76 81 82 84 79
66 71 78 78 82 85 89 99 98 99 100 96 97 82 74 76 79 70 83 87 75 86 87 98 96 95 96 90 80 89 90 96 100 100 97 96 92 83 73 71 77 74 72 72
67 73 78 81 84 86 86 98 94 97 99 98 78 67 74 66 74 81 74 72 80 87 89 87 95 91 87 91 90 89 96 98 99 100 100 99 98 98 96 85 76 72 70 71
68 73 78 81 83 85 95 98 92 85 91 96 86 82 70 68 78 84 83 84 83 89 93 97 92 89 97 89 88 90 94 97 96 97 100 100 100 99 95 92 76 72 72 72
71 74 78 82 86 89 98 100 99 87 84 100 96 78 78 82 83 89 92 89 90 91 90 98 99 95 100 95 92 94 98 95 95 97 100 100 99 97 96 91 72 69 71 71
75 77 82 87 90 97 99 95 85 84 93 100 90 86 75 81 86 92 94 87 89 90 90 96 96 89 87 95 91 93 96 94 93 97 99 95 96 94 93 71 68 70 68 68
77 82 89 92 91 94 96 96 86 82 98 94 89 87 85 84 97 93 91 90 94 97 93 94 89 84 92 94 89 88 87 85 85 88 85 85 77 71 69 65 65 69 71 70
80 89 91 98 99 99 98 93 86 91 93 92 94 95 92 95 98 94 98 96 99 89 95 99 95 94 97 93 88 86 83 82 79 81 74 76 77 74 70 69 68 70 74 72
87 97 100 100 99 89 93 97 100 100 99 96 95 87 95 93 100 96 93 95 93 98 90 91 96 95 91 87 87 82 77 72 66 80 73 71 73 74 73 74 71 70 72 73
99 100 100 96 89 96 99 99 99 96 94 91 86 89 94 93 98 99 97 92 94 87 93 92 91 88 88 87 85 78 72 71 74 74 74 70 73 74 71 72 71 70 72 79
93 95 95 99 98 100 98 97 96 90 88 95 91 90 89 100 99 100 100 99 98 95 98 96 93 88 86 80 82 75 75 74 76 75 80 79 74 74 72 72 75 78 80 88
88 96 100 100 98 98 96 98 90 93 95 96 99 100 99 99 97 100 100 97 97 97 96 93 89 85 82 80 73 72 68 69 73 78 78 82 88 90 86 93 92 92 94 94
98 97 96 96 96 95 95 94 92 97 97 100 98 99 95 97 98 98 97 96 96 95 95 93 89 90 88 82 76 75 88 89 89 94 93 94 94 95 94 95 94 94 95 94
91 80 96 98 95 96 96 96 94 96 97 99 99 93 89 92 91 90 94 92 94 91 93 92 90 91 87 88 86 87 90 95 95 93 95 96 94 93 95 94 94 92 94 94
83 87 94 95 95 97 96 97 98 96 97 98 91 92 92 94 88 85 97 91 92 94 93 90 88 93 93 93 91 94 94 93 95 93 92 93 94 95 94 93 93 94 93 95
86 98 97 97 98 98 97 96 95 94 95 98 85 90 97 78 86 91 90 93 93 93 93 90 91 92 96 96 94 95 93 93 92 92 92 94 91 88 84 91 93 89 92 96

GFSNW_sfc_rhum_111.txt.gz
RH
62 66 70 74 74 74 72 46 68 41 46 62 64 51 40 48 33 29 36 43 38 45 45 41 52 59 58 56 85 87 65 66 38 28 18 14 11 19 21 27 26 23 30 53
64 67 70 73 74 74 45 36 32 39 53 75 37 35 35 38 40 37 40 45 37 34 47 56 38 42 41 39 68 94 81 58 80 73 35 18 16 15 20 24 24 35 40 25
64 65 69 74 77 75 57 63 93 36 34 39 49 44 41 40 35 38 35 38 31 35 43 36 47 39 34 38 53 72 76 71 79 80 83 35 37 21 16 21 32 27 26 59
62 62 68 76 77 77 60 68 73 39 72 52 40 40 39 38 43 32 31 37 38 39 46 41 40 35 34 32 56 52 64 71 52 52 50 39 49 43 27 26 28 35 34 37
63 62 68 75 77 77 62 97 73 40 35 38 43 46 35 38 40 36 36 41 39 38 42 41 46 41 42 45 40 52 56 79 51 44 31 33 36 28 26 23 21 22 21 22
60 62 68 74 79 79 55 45 42 46 48 39 41 37 35 37 36 33 31 36 42 45 38 37 38 38 42 42 48 58 67 73 61 48 34 34 43 32 28 25 23 27 36 47
59 64 67 75 80 78 50 49 45 62 67 35 38 37 36 36 34 40 34 35 41 34 34 39 38 36 36 39 40 45 65 64 54 59 44 60 41 35 29 26 42 42 41 48
61 64 66 75 78 81 68 51 54 58 76 42 36 39 39 38 37 40 39 36 35 38 46 61 49 49 51 42 37 40 46 68 67 64 52 38 30 66 82 70 84 64 64 63
66 67 68 73 78 80 94 90 62 77 77 54 38 41 40 44 44 45 46 36 38 46 56 69 69 54 45 54 61 40 41 46 61 61 55 61 92 56 60 63 97 83 72 68
68 68 67 71 77 77 90 92 84 96 98 44 44 45 50 39 43 51 49 47 47 46 69 72 60 54 35 50 72 90 73 74 77 59 55 57 55 49 58 90 99 77 68 70
70 68 67 69 76 77 85 95 85 96 94 53 51 46 50 44 50 72 62 55 74 64 74 65 62 67 52 50 48 65 66 72 85 62 68 75 63 59 87 98 80 71 69 69
70 70 66 68 72 76 79 93 93 94 99 89 70 59 49 48 46 61 54 63 63 56 75 68 58 73 70 58 67 50 76 70 86 94 98 87 76 88 71 64 64 60 60 58
70 71 65 65 69 76 79 87 97 98 100 96 79 61 44 42 47 46 63 56 48 57 67 69 67 72 69 74 74 62 67 57 76 73 97 96 97 85 70 58 55 50 49 52
70 72 67 66 69 77 78 95 93 96 97 95 47 38 47 38 40 46 51 51 52 60 71 72 68 72 44 61 60 69 68 64 97 98 98 87 82 94 94 76 57 50 50 52
67 70 66 66 69 77 79 88 93 91 95 98 61 43 37 38 43 47 50 56 60 68 87 80 74 47 69 57 74 93 67 98 93 100 100 100 98 99 92 85 67 52 52 55
70 69 65 66 72 78 88 100 97 86 95 99 72 43 44 47 46 48 52 54 67 76 76 79 68 53 82 96 85 77 79 80 97 100 100 99 100 97 88 85 87 70 50 49
68 67 65 65 72 92 98 95 94 86 92 100 80 56 47 45 51 62 68 68 71 69 72 66 61 63 96 91 82 83 79 83 98 100 99 96 96 93 86 82 78 79 64 50
68 68 67 69 74 83 96 86 90 91 97 88 85 69 59 58 83 79 78 86 80 83 71 65 79 65 72 91 74 65 70 72 93 93 86 90 92 88 84 78 57 53 52 50
66 67 69 84 95 98 92 87 92 90 92 87 88 83 90 63 72 88 84 74 93 58 82 65 64 66 92 90 71 66 64 69 72 79 74 77 87 88 85 68 52 52 54 53
64 77 99 100 98 84 92 97 100 99 98 85 86 50 74 59 92 85 93 92 90 88 69 53 80 89 78 70 65 58 58 52 52 73 68 64 81 83 66 54 52 51 54 54
96 100 100 94 89 93 99 100 97 89 92 70 61 56 70 56 95 99 85 94 74 82 66 74 74 87 84 68 68 60 56 53 54 53 52 50 54 56 56 55 55 56 58 66
93 94 93 98 99 100 100 94 72 71 60 73 74 72 63 78 78 86 91 96 88 82 67 86 76 82 69 61 59 55 57 56 57 57 66 66 61 58 56 58 62 66 69 79
96 98 100 100 100 100 100 96 75 81 69 85 84 93 72 78 67 95 99 100 95 72 94 93 84 73 61 58 53 52 51 53 57 63 66 70 79 79 76 83 83 82 84 84
100 99 99 100 100 88 76 63 73 75 81 83 84 86 77 79 94 99 100 94 94 98 92 93 81 84 71 61 57 60 74 77 77 82 82 83 84 87 84 85 84 83 86 85
99 98 100 96 94 92 99 99 93 93 86 86 90 79 72 93 100 97 96 99 97 80 90 87 83 80 74 76 71 74 80 83 83 82 84 84 82 83 85 84 83 82 83 83
90 86 91 87 92 97 100 100 99 92 99 84 77 92 97 99 96 96 91 86 88 88 85 79 73 81 79 80 79 81 80 80 81 81 80 80 82 83 84 81 82 83 82 84
92 89 92 96 100 99 98 100 97 87 100 99 72 95 90 72 78 82 73 90 86 85 84 78 77 78 84 83 83 83 81 80 79 79 78 80 77 76 70 78 80 76 78 81

GFSNW_sfc_rhum_114.txt.gz
RH
62 64 68 73 74 75 76 52 68 41 41 79 63 53 33 43 27 24 28 31 32 36 38 54 36 43 38 33 66 70 60 77 71 32 15 14 18 24 26 40 37 29 37 44
63 66 68 72 76 75 57 44 34 40 51 84 40 30 29 28 29 30 32 35 31 31 35 52 61 36 29 33 45 69 65 83 90 58 39 16 17 14 17 25 28 40 52 34
64 66 67 72 77 77 67 65 97 41 36 34 42 38 35 33 29 30 27 30 39 35 36 31 70 40 29 33 40 68 66 68 95 98 98 69 39 14 13 19 37 32 43 46
64 63 65 73 78 77 67 73 78 38 72 51 38 36 35 33 34 27 26 33 37 36 46 42 41 34 34 32 47 43 54 76 73 57 46 84 86 65 33 18 24 32 60 56
63 61 64 72 78 76 62 96 78 38 36 35 38 44 32 32 31 33 34 36 35 37 43 43 48 42 42 45 36 40 48 78 65 49 27 44 72 68 62 65 49 38 38 45
63 59 64 71 79 79 57 50 39 44 50 39 40 40 31 30 29 28 26 31 36 41 37 40 40 39 40 42 50 46 57 78 69 50 34 31 38 32 30 24 23 30 49 70
61 62 65 70 78 82 70 54 50 57 68 40 35 33 32 35 33 39 32 32 39 33 34 36 37 36 32 32 39 34 56 58 58 67 53 53 58 54 54 46 56 54 56 61
63 62 65 69 78 81 71 84 54 58 76 38 34 36 34 36 35 40 37 34 33 36 44 56 53 50 45 42 31 36 42 56 70 70 63 39 73 63 73 82 93 73 63 65
68 67 66 70 76 76 85 78 77 66 78 55 40 39 36 47 50 44 43 43 36 42 52 69 64 64 49 48 70 54 42 47 60 64 67 69 79 53 46 54 99 98 79 65
69 71 67 69 74 76 88 93 79 82 92 44 44 54 62 42 47 48 46 53 50 44 66 73 64 60 43 58 78 81 64 65 70 62 60 86 74 58 47 78 100 96 88 75
70 71 67 69 73 75 82 90 79 86 99 61 52 48 57 55 54 80 62 57 72 62 74 65 66 67 55 56 49 64 76 84 91 86 71 90 84 60 89 98 95 93 81 68
73 72 68 70 70 75 74 89 84 92 99 88 78 68 56 56 52 57 55 58 59 49 77 73 64 70 67 60 76 72 83 70 81 97 98 98 88 96 91 76 68 61 61 58
72 72 69 66 68 71 74 88 94 98 100 90 70 54 44 46 49 48 67 55 46 54 73 85 76 73 65 80 71 68 65 54 82 82 89 84 91 95 95 90 75 54 51 51
70 72 70 66 66 68 76 90 85 97 97 96 49 35 43 34 38 46 49 52 54 60 63 79 76 70 46 62 54 70 68 67 95 96 83 83 86 97 99 94 74 61 53 53
69 72 71 67 66 68 70 85 91 80 93 99 68 51 36 36 39 42 46 60 65 63 76 84 79 50 64 58 55 94 72 97 92 94 97 100 99 100 98 94 92 61 52 52
72 69 68 66 66 73 81 97 84 78 87 100 80 51 46 39 42 44 48 56 64 71 69 80 66 48 68 84 78 79 76 78 93 100 100 92 100 100 98 93 92 75 63 53
69 70 68 65 68 76 97 90 96 89 90 100 87 56 45 42 48 62 63 63 67 67 71 72 59 59 71 84 75 81 75 77 91 98 99 97 92 94 98 96 86 72 65 54
70 68 68 66 66 74 91 68 90 95 96 95 89 69 69 50 68 76 62 70 75 79 64 59 67 61 80 91 72 63 64 67 81 89 81 91 95 93 92 88 85 71 56 54
72 67 66 69 77 89 70 85 90 88 98 100 91 80 79 58 77 87 85 73 91 59 81 64 67 74 93 94 68 64 61 64 61 72 68 73 83 90 90 89 84 76 58 59
67 70 80 99 94 82 82 97 99 100 98 98 90 52 75 62 85 92 86 83 81 88 71 55 85 95 81 70 65 59 58 53 54 77 81 58 65 73 78 75 63 57 63 64
83 99 99 81 86 88 98 100 100 99 97 73 63 56 71 58 89 92 92 99 79 74 66 72 72 90 91 71 68 61 57 54 57 55 57 55 57 58 59 60 61 64 67 74
91 91 92 97 99 100 100 98 76 72 61 67 73 67 56 75 77 87 92 89 82 79 70 83 80 91 69 62 58 55 58 57 60 61 68 71 69 65 64 64 69 74 73 86
96 92 100 100 99 100 97 92 76 80 70 83 83 90 72 79 70 93 95 92 88 82 96 92 90 77 61 56 54 56 56 59 62 67 68 72 78 83 82 87 89 87 92 94
99 98 95 99 96 84 74 69 76 84 91 87 84 83 85 85 89 99 89 87 89 91 96 93 86 83 67 61 61 65 76 81 80 84 84 86 87 91 90 91 90 91 92 91
98 99 97 94 96 97 100 100 94 86 84 85 91 80 70 97 99 88 89 93 86 87 91 90 86 80 75 77 72 75 80 88 87 84 85 88 89 87 90 90 88 85 90 89
98 94 96 91 96 97 100 100 100 86 94 88 84 87 91 93 88 93 94 82 94 93 90 85 80 83 81 82 82 83 84 82 84 85 83 83 87 86 85 84 85 89 88 89
93 93 89 94 100 100 100 100 98 90 100 100 76 87 81 75 76 79 76 93 92 89 90 81 78 83 86 85 83 87 85 84 82 83 83 82 78 92 88 87 90 88 85 92